Weather History for KAHQ - November, 2011

Change the Weather History Date:

Tuesday, November 15, 2011

  Actual Average Record
Temperature  
Mean Temperature 42 °F -  
Max Temperature 53 °F 49 °F 73 °F (1990)
Min Temperature 30 °F 27 °F 12 °F (1972)
Degree Days  
Heating Degree Days 24    
Moisture  
Dew Point 26 °F    
Average Humidity 53    
Maximum Humidity 75    
Minimum Humidity 30    
Precipitation  
Precipitation 0.00 in - - ()
Sea Level Pressure  
Sea Level Pressure 29.82 in    
Wind  
Wind Speed 13 mph (NW)    
Max Wind Speed 22 mph    
Max Gust Speed 29 mph    
Visibility 10 miles    
Events      
Averages and records for this station are not official NWS values.
T = Trace of Precipitation, MM = Missing Value Source: NWS Daily Summary

Daily Weather History Graph

Daily Weather History Graph

Search for Another Location

Airport or City:

Trip Planner

Search our weather history database for the weather conditions in past years. The results will help you decide how hot, cold, wet, or windy it might be!

Date:

Astronomy

Nov. 15, 2011 Rise Set
Actual Time 7:14 AM CST 5:07 PM CST
Civil Twilight 6:44 AM CST 5:36 PM CST
Nautical Twilight 6:11 AM CST 6:10 PM CST
Astronomical Twilight 5:38 AM CST 6:42 PM CST
Moon 9:17 PM CST (11/15) 11:14 AM CST (11/15)
Length of Visible Light 10h 52m
Length of Day
9h 53m
Waning Gibbous, 79% of the Moon is Illuminated
Nov 15
Waning Gibbous
Nov 18
Last Quarter
Nov 25
New
Dec 2
First Quarter
Dec 10
Full

Hourly Weather History & Observations

Time (CST) Temp. Windchill Dew Point Humidity Pressure Visibility Wind Dir Wind Speed Gust Speed Precip Events Conditions
12:15 AM 46.4 °F 38.7 °F 32.0 °F 57% 29.60 in 10.0 mi SW 20.7 mph 28.8 mph N/A   Clear
12:35 AM 46.4 °F 40.1 °F 32.0 °F 57% 29.61 in 10.0 mi WSW 15.0 mph 24.2 mph N/A   Scattered Clouds
12:55 AM 44.6 °F 39.7 °F 32.0 °F 61% 29.62 in 10.0 mi WSW 9.2 mph - N/A   Scattered Clouds
1:15 AM 44.6 °F 39.2 °F 32.0 °F 61% 29.60 in 10.0 mi SW 10.4 mph - N/A   Scattered Clouds
1:35 AM 46.4 °F 38.7 °F 32.0 °F 57% 29.59 in 10.0 mi SW 20.7 mph 25.3 mph N/A   Clear
1:55 AM 46.4 °F 39.0 °F 32.0 °F 57% 29.58 in 10.0 mi SW 19.6 mph 26.5 mph N/A   Clear
2:55 AM 44.6 °F 37.8 °F 32.0 °F 61% 29.59 in 10.0 mi WSW 15.0 mph 19.6 mph N/A   Clear
3:15 AM 46.4 °F 40.1 °F 32.0 °F 57% 29.59 in 10.0 mi WSW 15.0 mph 21.9 mph N/A   Clear
3:35 AM 46.4 °F 40.4 °F 32.0 °F 57% 29.60 in 10.0 mi WSW 13.8 mph 19.6 mph N/A   Clear
3:55 AM 44.6 °F 38.4 °F 32.0 °F 61% 29.60 in 10.0 mi WSW 12.7 mph 20.7 mph N/A   Clear
4:15 AM 44.6 °F 37.4 °F 32.0 °F 61% 29.60 in 10.0 mi WSW 16.1 mph 19.6 mph N/A   Clear
4:35 AM 42.8 °F 36.2 °F 32.0 °F 66% 29.60 in 10.0 mi WSW 12.7 mph - N/A   Clear
4:55 AM 42.8 °F 36.2 °F 32.0 °F 66% 29.63 in 10.0 mi WSW 12.7 mph - N/A   Clear
5:15 AM 42.8 °F 37.0 °F 32.0 °F 66% 29.64 in 10.0 mi West 10.4 mph - N/A   Clear
5:55 AM 41.0 °F 34.7 °F 30.2 °F 65% 29.66 in 10.0 mi WNW 10.4 mph 16.1 mph N/A   Clear
7:15 AM 37.4 °F 32.1 °F 28.4 °F 70% 29.68 in 10.0 mi WNW 6.9 mph - N/A   Clear
7:35 AM 35.6 °F 29.9 °F 28.4 °F 75% 29.69 in 10.0 mi WNW 6.9 mph - N/A   Clear
7:55 AM 37.4 °F 30.8 °F 28.4 °F 70% 29.70 in 10.0 mi NNW 9.2 mph - N/A   Clear
8:15 AM 39.2 °F 32.0 °F 28.4 °F 65% 29.70 in 10.0 mi NNW 11.5 mph - N/A   Clear
8:55 AM 41.0 °F 35.2 °F 26.6 °F 57% 29.72 in 10.0 mi NNW 9.2 mph - N/A   Clear
9:15 AM 41.0 °F 35.2 °F 26.6 °F 57% 29.73 in 10.0 mi NNW 9.2 mph - N/A   Clear
9:35 AM 42.8 °F 37.0 °F 28.4 °F 57% 29.75 in 10.0 mi North 10.4 mph - N/A   Clear
9:55 AM 42.8 °F 37.0 °F 28.4 °F 57% 29.76 in 10.0 mi NNW 10.4 mph - N/A   Clear
10:15 AM 42.8 °F 36.6 °F 28.4 °F 57% 29.77 in 10.0 mi North 11.5 mph 16.1 mph N/A   Clear
10:35 AM 44.6 °F 38.1 °F 28.4 °F 53% 29.79 in 10.0 mi NNW 13.8 mph 18.4 mph N/A   Clear
10:55 AM 46.4 °F 40.1 °F 28.4 °F 50% 29.80 in 10.0 mi NNW 15.0 mph 20.7 mph N/A   Clear
11:15 AM 46.4 °F 40.7 °F 28.4 °F 50% 29.81 in 10.0 mi NNW 12.7 mph 19.6 mph N/A   Clear
11:35 AM 50.0 °F - 28.4 °F 43% 29.82 in 10.0 mi North 12.7 mph 20.7 mph N/A   Clear
11:55 AM 51.8 °F - 26.6 °F 38% 29.81 in 10.0 mi North 16.1 mph 23.0 mph N/A   Clear
12:15 PM 53.6 °F - 24.8 °F 33% 29.81 in 10.0 mi North 17.3 mph 23.0 mph N/A   Clear
12:35 PM 53.6 °F - 24.8 °F 33% 29.81 in 10.0 mi North 18.4 mph 23.0 mph N/A   Clear
12:55 PM 53.6 °F - 23.0 °F 30% 29.80 in 10.0 mi North 20.7 mph 24.2 mph N/A   Clear
1:15 PM 53.6 °F - 24.8 °F 33% 29.81 in 10.0 mi North 18.4 mph 24.2 mph N/A   Clear
1:35 PM 53.6 °F - 24.8 °F 33% 29.81 in 10.0 mi North 21.9 mph 26.5 mph N/A   Clear
1:55 PM 53.6 °F - 23.0 °F 30% 29.82 in 10.0 mi North 19.6 mph 25.3 mph N/A   Clear
2:15 PM 53.6 °F - 23.0 °F 30% 29.83 in 10.0 mi North 19.6 mph 26.5 mph N/A   Clear
2:35 PM 51.8 °F - 24.8 °F 35% 29.84 in 10.0 mi North 21.9 mph 27.6 mph N/A   Clear
2:55 PM 51.8 °F - 26.6 °F 38% 29.85 in 10.0 mi North 16.1 mph 25.3 mph N/A   Clear
3:15 PM 51.8 °F - 26.6 °F 38% 29.86 in 10.0 mi NNW 12.7 mph - N/A   Clear
3:35 PM 51.8 °F - 24.8 °F 35% 29.87 in 10.0 mi NNW 17.3 mph 21.9 mph N/A   Clear
3:55 PM 50.0 °F - 23.0 °F 35% 29.88 in 10.0 mi NNW 20.7 mph 27.6 mph N/A   Clear
4:15 PM 50.0 °F - 23.0 °F 35% 29.89 in 10.0 mi NNW 16.1 mph 20.7 mph N/A   Clear
4:35 PM 48.2 °F - 21.2 °F 34% 29.90 in 10.0 mi North 17.3 mph 23.0 mph N/A   Clear
4:55 PM 46.4 °F 40.4 °F 23.0 °F 40% 29.91 in 10.0 mi North 13.8 mph - N/A   Clear
5:15 PM 42.8 °F 36.6 °F 23.0 °F 46% 29.92 in 10.0 mi North 11.5 mph - N/A   Clear
5:35 PM 42.8 °F 37.5 °F 23.0 °F 46% 29.94 in 10.0 mi North 9.2 mph - N/A   Clear
5:55 PM 41.0 °F 35.2 °F 23.0 °F 49% 29.95 in 10.0 mi NNW 9.2 mph - N/A   Clear
6:15 PM 37.4 °F 31.4 °F 23.0 °F 56% 29.96 in 10.0 mi NNW 8.1 mph - N/A   Clear
6:35 PM 37.4 °F 30.8 °F 23.0 °F 56% 29.97 in 10.0 mi NNW 9.2 mph - N/A   Clear
6:55 PM 37.4 °F 31.4 °F 21.2 °F 52% 29.98 in 10.0 mi NNW 8.1 mph - N/A   Clear
7:15 PM 35.6 °F 28.6 °F 23.0 °F 60% 29.99 in 10.0 mi NNW 9.2 mph - N/A   Clear
7:35 PM 33.8 °F 27.7 °F 21.2 °F 60% 30.00 in 10.0 mi NNW 6.9 mph - N/A   Clear
7:55 PM 32.0 °F 26.4 °F 21.2 °F 64% 30.02 in 10.0 mi NNW 5.8 mph - N/A   Clear
8:15 PM 33.8 °F 29.6 °F 21.2 °F 60% 30.02 in 10.0 mi North 4.6 mph - N/A   Clear
8:35 PM 32.0 °F 26.4 °F 21.2 °F 64% 30.02 in 10.0 mi North 5.8 mph - N/A   Clear
8:55 PM 32.0 °F 27.5 °F 21.2 °F 64% 30.03 in 10.0 mi NNW 4.6 mph - N/A   Clear
9:15 PM 32.0 °F 27.5 °F 23.0 °F 69% 30.03 in 10.0 mi NW 4.6 mph - N/A   Clear
9:35 PM 32.0 °F 26.4 °F 23.0 °F 69% 30.04 in 10.0 mi NNW 5.8 mph - N/A   Clear
9:55 PM 30.2 °F 23.4 °F 21.2 °F 69% 30.04 in 10.0 mi NW 6.9 mph - N/A   Clear
10:15 PM 30.2 °F 22.6 °F 21.2 °F 69% 30.05 in 10.0 mi NNW 8.1 mph - N/A   Clear
10:35 PM 32.0 °F 27.5 °F 19.4 °F 60% 30.06 in 10.0 mi NNW 4.6 mph - N/A   Clear
10:55 PM 32.0 °F 28.7 °F 17.6 °F 55% 30.07 in 10.0 mi North 3.5 mph - N/A   Clear
11:15 PM 30.2 °F - 17.6 °F 60% 30.08 in 10.0 mi Calm Calm - N/A   Clear
11:35 PM 30.2 °F - 17.6 °F 60% 30.09 in 10.0 mi Calm Calm - N/A   Clear
11:55 PM 30.2 °F 25.4 °F 19.4 °F 64% 30.09 in 10.0 mi NW 4.6 mph - N/A   Clear